Location: Vancouver
(49.2500°N, 123.1330°W)
Time: 21:53:42
(UTC-07:00)

S-56A Canister/Altair - Visible Passes

Search period start: 28 July 2015 00:00
Search period end: 07 August 2015 00:00
Orbit: 637 x 2498 km, 38.9° (Epoch: 26 July)

Date Brightness Start Highest point End Pass type
(mag) Time Alt. Az. Time Alt. Az. Time Alt. Az.
30 Jul 9.9 04:57:21 10° SSW 05:01:27 16° SSE 05:04:59 10° ESE visible
31 Jul 10.0 04:24:56 10° S 04:29:13 16° SSE 04:32:55 10° ESE visible
01 Aug 10.1 03:53:12 11° S 03:56:57 15° SSE 04:00:48 10° ESE visible
02 Aug 10.2 03:22:24 14° S 03:24:38 15° SSE 03:28:38 10° ESE visible
03 Aug 10.3 02:51:33 14° SSE 02:52:17 15° SSE 02:56:24 10° ESE visible
03 Aug 9.4 04:49:07 10° SW 04:55:59 28° SSE 05:01:03 10° ESE visible
04 Aug 10.4 02:20:40 14° SE 02:20:40 14° SE 02:24:02 10° ESE visible
04 Aug 9.5 04:18:06 15° SSW 04:23:42 28° SSE 04:29:07 10° ESE visible
05 Aug 10.5 01:49:44 12° SE 01:49:44 12° SE 01:51:35 10° ESE visible
05 Aug 9.6 03:47:10 20° SSW 03:51:22 28° SSE 03:57:08 10° ESE visible
06 Aug 10.7 01:18:46 10° ESE 01:18:46 10° ESE 01:18:55 10° ESE visible
06 Aug 9.7 03:16:11 24° S 03:18:59 28° SSE 03:25:08 10° ESE visible
